Location: Casteau
(50.5142°N, 4.0161°E)
Time: 18:52:28
(UTC+00:00)

Tiros 1 - Pass Details

Date: 03 August 2021
Orbit: 630 x 663 km, 48.4° (Epoch: 28 September)

Event Time Altitude Azimuth Distance (km) Brightness Sun altitude
Rises 17:12:34 0° 225° (SW) 2,982 11.2 19.2°
Reaches altitude 10° 17:15:05 10° 216° (SW) 2,069 10.3 18.8°
Maximum altitude 17:19:22 34° 152° (SSE) 1,087 8.2 18.1°
Drops below altitude 10° 17:23:39 10° 88° (E) 2,061 9.2 17.4°
Sets 17:26:08 0° 80° (E) 2,968 10.0 17.0°
